Maun, Botswana

4:24 AM CAT on January 20, 2017 (GMT +0200)
Maun

Weather History for FBMN - December, 2012

Change the Weather History Date:

Wednesday, December 19, 2012

  Actual Average Record
Temperature  
Mean Temperature 81 °F -  
Max Temperature 91 °F 88 °F 98 °F (2004)
Min Temperature 71 °F 69 °F 60 °F (2007)
Cooling Degree Days 16    
Growing Degree Days 31 (Base 50)    
Moisture  
Dew Point 67 °F    
Average Humidity 69    
Maximum Humidity 88    
Minimum Humidity 41    
Precipitation  
Precipitation 0.00 in - - ()
Sea Level Pressure  
Sea Level Pressure 29.97 in    
Wind  
Wind Speed 5 mph ()    
Max Wind Speed 21 mph    
Max Gust Speed -    
Visibility 6.2 miles    
Events Rain , Thunderstorm    
Averages and records for this station are not official NWS values.
T = Trace of Precipitation, MM = Missing Value Source: Averaged Metar Reports

Daily Weather History Graph

Daily Weather History Graph

Search for Another Location

Airport or City:

Trip Planner

Search our weather history database for the weather conditions in past years. The results will help you decide how hot, cold, wet, or windy it might be!

Date:

Astronomy

Dec. 19, 2012 Rise Set
Actual Time 5:43 AM CAT 7:03 PM CAT
Civil Twilight 5:18 AM CAT 7:28 PM CAT
Nautical Twilight 4:49 AM CAT 7:57 PM CAT
Astronomical Twilight 4:19 AM CAT 8:27 PM CAT
Moon 11:42 AM CAT (12/19) No Moon Set
Length of Visible Light 14h 09m
Length of Day
13h 20m
Waxing Crescent, 42% of the Moon is Illuminated
Dec 19
Waxing Crescent
Dec 20
First Quarter
Dec 28
Full
Jan 5
Last Quarter
Jan 11
New

Hourly Weather History & Observations

Time (CAT) Temp. Heat Index Dew Point Humidity Pressure Visibility Wind Dir Wind Speed Gust Speed Precip Events Conditions
12:00 AM 73.4 °F - 68.0 °F 83% 29.98 in - Variable 2.3 mph - N/A   Clear
2:00 AM 73.4 °F - 68.0 °F 83% 29.95 in - SE 3.5 mph - N/A   Clear
3:00 AM 73.4 °F - 68.0 °F 83% 29.98 in - ESE 3.5 mph - N/A   Clear
4:00 AM 71.6 °F - 68.0 °F 88% 29.95 in - Calm Calm - N/A   Clear
5:00 AM 71.6 °F - 68.0 °F 88% 29.98 in - East 4.6 mph - N/A   Clear
6:00 AM 71.6 °F - 68.0 °F 88% 30.01 in - East 4.6 mph - N/A   Clear
7:00 AM 73.4 °F - 68.0 °F 83% 30.04 in - East 9.2 mph - N/A   Clear
8:00 AM 77.0 °F - 68.0 °F 74% 30.04 in - NE 10.4 mph - N/A   Clear
9:00 AM 80.6 °F 83.2 °F 68.0 °F 65% 30.04 in - NE 11.5 mph - N/A   Clear
10:00 AM 86.0 °F 88.2 °F 66.2 °F 51% 30.01 in 6.2 mi NNE 8.1 mph - N/A   Partly Cloudy
11:00 AM 86.0 °F 89.4 °F 68.0 °F 55% 30.01 in 6.2 mi NE 8.1 mph - N/A   Partly Cloudy
12:00 PM 87.8 °F 91.4 °F 68.0 °F 52% 29.98 in 6.2 mi NE 9.2 mph - N/A   Scattered Clouds
1:00 PM 89.6 °F 93.4 °F 68.0 °F 49% 29.95 in 6.2 mi NW 5.8 mph - N/A   Scattered Clouds
2:00 PM 89.6 °F 92.2 °F 66.2 °F 46% 29.92 in 6.2 mi NNW 4.6 mph - N/A   Scattered Clouds
3:00 PM 91.4 °F 94.0 °F 66.2 °F 43% 29.86 in 6.2 mi Variable 1.2 mph - N/A   Scattered Clouds
4:00 PM 91.4 °F 93.2 °F 64.4 °F 41% 29.83 in 6.2 mi Variable 1.2 mph - N/A   Scattered Clouds
5:00 PM 82.4 °F 83.9 °F 64.4 °F 54% 29.86 in 6.2 mi East 20.7 mph - N/A Thunderstorm Thunderstorm
7:00 PM 73.4 °F - 66.2 °F 78% 29.95 in 6.2 mi NNW 4.6 mph - N/A Thunderstorm Thunderstorm
8:00 PM 77.0 °F - 66.2 °F 69% 29.95 in 6.2 mi Variable 1.2 mph - N/A Thunderstorm Thunderstorm
9:00 PM 75.2 °F - 68.0 °F 78% 29.98 in 6.2 mi SE 8.1 mph - N/A Thunderstorm Thunderstorm
10:00 PM 75.2 °F - 69.8 °F 83% 30.01 in 6.2 mi NW 5.8 mph - N/A Rain , Thunderstorm Thunderstorms and Rain
11:00 PM 73.4 °F - 66.2 °F 78% 30.01 in 6.2 mi WNW 6.9 mph - N/A Thunderstorm Thunderstorm